VIR400M EGLL-OMDB

Flight info

Callsign VIR400M
Flight time N/A
Altitude 35000
Route DET1J DET L6 DVR UL9 KONAN DCT KOK DCT RITAX DCT BANUX DCT VEKIR DCT LATLO DCT OBEDI DCT VAMET DCT RASIN DCT LAKIK DCT MAVIT DCT ELRUR DCT ARTAT UP975 ERGUN UL124 BONAM L319 DASDO L223 LAM G666 ORSAR R784 TATLA L223 VUTEB VUTEB3C
Aircraft A339/H-VGDW/C

Departure

Time 2026-05-07 15:05
Airport London Heathrow Airport (EGLL)

Arrival

Time N/A
Airport Dubai International Airport (OMDB)
Time Latitude Longitude Altitude Speed Heading
2026-05-07 14:44 51.46850 -0.46350 89 ft 0 kts 57°
2026-05-07 14:53 51.46849 -0.46350 89 ft 0 kts 57°
2026-05-07 14:53 51.46846 -0.46359 89 ft 2 kts 57°
2026-05-07 14:53 51.46837 -0.46380 89 ft 2 kts 57°
2026-05-07 14:53 51.46829 -0.46399 88 ft 2 kts 57°
2026-05-07 14:54 51.46822 -0.46420 88 ft 2 kts 76°
2026-05-07 14:54 51.46820 -0.46444 87 ft 2 kts 97°
2026-05-07 14:54 51.46823 -0.46468 87 ft 2 kts 116°
2026-05-07 14:54 51.46831 -0.46487 87 ft 2 kts 135°
2026-05-07 14:55 51.46838 -0.46497 86 ft 0 kts 147°
2026-05-07 14:55 51.46842 -0.46501 86 ft 0 kts 147°
2026-05-07 14:55 51.46841 -0.46501 86 ft 0 kts 147°
2026-05-07 14:58 51.46837 -0.46496 86 ft 2 kts 146°
2026-05-07 14:58 51.46816 -0.46473 87 ft 4 kts 146°
2026-05-07 14:58 51.46783 -0.46439 88 ft 7 kts 153°
2026-05-07 14:59 51.46724 -0.46423 88 ft 9 kts 177°
2026-05-07 14:59 51.46670 -0.46468 90 ft 10 kts 252°
2026-05-07 14:59 51.46658 -0.46602 88 ft 14 kts 269°
2026-05-07 14:59 51.46655 -0.46782 86 ft 17 kts 270°
2026-05-07 15:00 51.46654 -0.46985 86 ft 18 kts 270°
2026-05-07 15:00 51.46655 -0.47202 86 ft 20 kts 270°
2026-05-07 15:00 51.46655 -0.47429 88 ft 19 kts 270°
2026-05-07 15:00 51.46653 -0.47643 90 ft 18 kts 270°
2026-05-07 15:01 51.46652 -0.47852 90 ft 19 kts 270°
2026-05-07 15:01 51.46652 -0.48074 89 ft 20 kts 270°
2026-05-07 15:01 51.46651 -0.48309 87 ft 22 kts 270°
2026-05-07 15:01 51.46650 -0.48560 86 ft 22 kts 270°
2026-05-07 15:02 51.46625 -0.48735 86 ft 13 kts 210°
2026-05-07 15:02 51.46540 -0.48778 86 ft 12 kts 183°
2026-05-07 15:02 51.46478 -0.48699 86 ft 9 kts 101°
2026-05-07 15:02 51.46477 -0.48658 86 ft 0 kts 90°
2026-05-07 15:03 51.46477 -0.48644 86 ft 4 kts 90°
2026-05-07 15:04 51.46479 -0.48293 86 ft 63 kts 90°
2026-05-07 15:04 51.46482 -0.47255 87 ft 120 kts 90°
2026-05-07 15:04 51.46488 -0.45653 94 ft 166 kts 90°
2026-05-07 15:04 51.46497 -0.43683 420 ft 180 kts 90°
2026-05-07 15:05 51.46470 -0.41721 1016 ft 178 kts 102°
2026-05-07 15:05 51.45987 -0.39942 1646 ft 176 kts 122°
2026-05-07 15:05 51.45334 -0.38315 2148 ft 178 kts 123°
2026-05-07 15:05 51.44654 -0.36605 2545 ft 185 kts 123°
2026-05-07 15:06 51.43905 -0.34865 2852 ft 197 kts 126°
2026-05-07 15:06 51.43248 -0.32885 3124 ft 212 kts 107°
2026-05-07 15:06 51.42978 -0.30464 3435 ft 227 kts 101°
2026-05-07 15:06 51.42679 -0.27902 3754 ft 243 kts 102°
2026-05-07 15:07 51.42331 -0.25199 4138 ft 256 kts 103°
2026-05-07 15:07 51.41951 -0.22372 4670 ft 264 kts 103°
2026-05-07 15:07 51.41559 -0.19492 5372 ft 266 kts 103°
2026-05-07 15:07 51.41166 -0.16628 6059 ft 267 kts 103°
2026-05-07 15:08 51.40767 -0.13722 6739 ft 269 kts 103°
2026-05-07 15:08 51.40367 -0.10812 7383 ft 272 kts 103°
2026-05-07 15:08 51.39957 -0.07829 8019 ft 276 kts 103°
2026-05-07 15:08 51.39541 -0.04825 8651 ft 280 kts 103°
2026-05-07 15:09 51.39120 -0.01798 9277 ft 283 kts 103°
2026-05-07 15:09 51.38693 0.01270 9896 ft 287 kts 103°
2026-05-07 15:09 51.38256 0.04402 10459 ft 293 kts 103°
2026-05-07 15:09 51.37799 0.07670 10758 ft 308 kts 103°
2026-05-07 15:10 51.37317 0.11101 11039 ft 324 kts 103°
2026-05-07 15:10 51.36814 0.14677 11318 ft 339 kts 103°
2026-05-07 15:10 51.36289 0.18401 11584 ft 354 kts 103°
2026-05-07 15:10 51.35730 0.22360 11853 ft 369 kts 103°